User: anonymous   Login
Location: Unspecified
(0.0000°N, 0.0000°E)
Time: 20:55:18
(UTC+01:00)
Language:

ARIANE 5 R/B - Orbit

View from above orbital plane
View from above orbital plane
View from above satellite
View from above satellite

Ground track
Ground track

The orbit data is extracted from the following two-line orbital elements,

1 28379U 04027B   14327.25523463 -.00000011  00000-0  16781-2 0  7298
2 28379 007.1122 289.8485 7296699 164.6959 355.9174 02.07917923 78645
Epoch (UTC): 23 November 2014 06:07:32
Eccentricity: 0.7296699
inclination: 7.1122°
perigee height: 631 km
apogee height: 38472 km
right ascension of ascending node: 289.8485°
argument of perigee: 164.6959°
revolutions per day: 2.07917923
mean anomaly at epoch: 355.9174°
orbit number at epoch: 7864

The dashed part of the orbit path shows where the satellite is in the earth's shadow,  

DLR